STARLINK-31765 (59604 NORAD) Tracking and Keplerian Element Data

This shows tracking and keplerian element data for the satellite.

Feedback or suggestion? Click here.




ElementValue
Catalog59604
NameSTARLINK-31765
Epoch Orbit747
Epoch Day159.98378062
Epoch Year2024
RAAN89.0841
Inclination43.001
Eccentricity0.0001508
Argument of Perigee275.0428
Mean Anonmoly85.0256
Mean Motion15.40720517
Decay Rate0.0001746
L11 59604U 24080D 24159.98378062 .00017460 00000+0 42400-3 0 9992
L22 59604 43.0010 89.0841 0001508 275.0428 85.0256 15.40720517 7472



Live tracking and technical data element details for STARLINK-31765 (NORAD 59604). STARLINK-31765 can be tracked NOW for your location showing map with azimuth and elevation plus other details from your city location.







IsCatalogInMostPopularTable: catalog: 59604, numindb: 17
Update: records affected: 1



GetName: 59604 STARLINK-31765

Hit Count: updated at: Fri, 14 Jun 2024 19:11:45 GMT